• In Belarus
  • List of Countries
  • For 7 days
  • Water Temperature
  • Satellite Maps
  • Weather Map
  • Weather Widgets
  • user-avatar
    Login

    Hourly Weather Nuernberg

    Today, 15 November, Thursday

    Time Temperature Precipitation Wind Pressure Humidity
    00:00 +4°C° 0 mm 1 mps 743 mmHg 93%
    01:00 +4°C° 0 mm 1 mps 743 mmHg 93%
    02:00 +3°C° 0 mm 1 mps 742 mmHg 93%
    03:00 +3°C° 0 mm 1 mps 742 mmHg 93%
    04:00 +3°C° 0 mm 1 mps 742 mmHg 93%
    05:00 +3°C° 0 mm 1 mps 742 mmHg 93%
    06:00 +3°C° 0 mm 1 mps 742 mmHg 94%
    07:00 +3°C° 0 mm 1 mps 742 mmHg 94%
    08:00 +4°C° 0 mm 1 mps 742 mmHg 89%
    09:00 +5°C° 0 mm 1 mps 742 mmHg 84%
    10:00 +5°C° 0 mm 2 mps 742 mmHg 80%
    11:00 +6°C° 0 mm 2 mps 742 mmHg 74%
    12:00 +8°C° 0 mm 2 mps 742 mmHg 69%
    13:00 +9°C° 0 mm 2 mps 742 mmHg 64%
    14:00 +8°C° 0 mm 2 mps 741 mmHg 66%
    15:00 +8°C° 0 mm 2 mps 741 mmHg 69%
    16:00 +9°C° 0 mm 1 mps 741 mmHg 72%
    17:00 +7°C° 0 mm 2 mps 741 mmHg 75%
    18:00 +6°C° 0 mm 2 mps 741 mmHg 78%
    19:00 +5°C° 0 mm 2 mps 741 mmHg 81%
    20:00 +5°C° 0 mm 2 mps 742 mmHg 81%
    21:00 +4°C° 0 mm 2 mps 742 mmHg 82%
    22:00 +4°C° 0 mm 2 mps 742 mmHg 83%
    23:00 +4°C° 0 mm 2 mps 742 mmHg 83%

    Tomorrow, 16 November, Friday

    Time Temperature Precipitation Wind Pressure Humidity
    00:00 +4°C° 0 mm 2 mps 742 mmHg 84%
    01:00 +3°C° 0 mm 2 mps 742 mmHg 84%
    02:00 +3°C° 0 mm 2 mps 742 mmHg 85%
    03:00 +3°C° 0 mm 2 mps 742 mmHg 85%
    04:00 +3°C° 0 mm 2 mps 742 mmHg 86%
    05:00 +2°C° 0 mm 2 mps 743 mmHg 86%
    06:00 +2°C° 0 mm 2 mps 743 mmHg 86%
    07:00 +2°C° 0 mm 2 mps 743 mmHg 86%
    08:00 +2°C° 0 mm 3 mps 743 mmHg 79%
    09:00 +3°C° 0 mm 3 mps 743 mmHg 72%
    10:00 +5°C° 0 mm 4 mps 743 mmHg 65%
    11:00 +6°C° 0 mm 4 mps 743 mmHg 61%
    12:00 +7°C° 0 mm 4 mps 743 mmHg 57%
    13:00 +8°C° 0 mm 4 mps 743 mmHg 53%
    14:00 +8°C° 0 mm 4 mps 742 mmHg 57%
    15:00 +7°C° 0 mm 4 mps 742 mmHg 61%
    16:00 +7°C° 0 mm 3 mps 742 mmHg 65%
    17:00 +5°C° 0 mm 4 mps 742 mmHg 68%
    18:00 +5°C° 0 mm 4 mps 742 mmHg 72%
    19:00 +4°C° 0 mm 4 mps 743 mmHg 76%
    20:00 +3°C° 0 mm 4 mps 743 mmHg 77%
    21:00 +3°C° 0 mm 4 mps 743 mmHg 78%
    22:00 +3°C° 0 mm 4 mps 743 mmHg 79%
    23:00 +3°C° 0 mm 4 mps 743 mmHg 79%

    Day after tomorrow, 17 November, Saturday

    Time Temperature Precipitation Wind Pressure Humidity
    00:00 +1°C° 0 mm 4 mps 743 mmHg 78%
    01:00 +1°C° 0 mm 4 mps 743 mmHg 78%
    02:00 +1°C° 0 mm 4 mps 742 mmHg 77%
    03:00 +1°C° 0 mm 4 mps 742 mmHg 76%
    04:00 +1°C° 0 mm 4 mps 742 mmHg 75%
    05:00 +1°C° 0 mm 4 mps 742 mmHg 73%
    06:00 +1°C° 0 mm 4 mps 742 mmHg 72%
    07:00 +1°C° 0 mm 4 mps 742 mmHg 71%
    08:00 +2°C° 0 mm 5 mps 742 mmHg 63%
    09:00 +5°C° 0 mm 5 mps 742 mmHg 56%
    10:00 +5°C° 0 mm 6 mps 742 mmHg 48%
    11:00 +7°C° 0 mm 6 mps 742 mmHg 45%
    12:00 +8°C° 0 mm 6 mps 742 mmHg 41%
    13:00 +8°C° 0 mm 6 mps 742 mmHg 37%
    14:00 +8°C° 0 mm 6 mps 742 mmHg 39%
    15:00 +7°C° 0 mm 5 mps 742 mmHg 42%
    16:00 +6°C° 0 mm 5 mps 741 mmHg 44%
    17:00 +5°C° 0 mm 5 mps 742 mmHg 47%
    18:00 +3°C° 0 mm 5 mps 742 mmHg 49%
    19:00 +2°C° 0 mm 5 mps 742 mmHg 51%
    20:00 +2°C° 0 mm 5 mps 742 mmHg 50%
    21:00 +1°C° 0 mm 5 mps 742 mmHg 49%
    22:00 +1°C° 0 mm 5 mps 742 mmHg 49%
    23:00 +1°C° 0 mm 5 mps 742 mmHg 51%

    18 November, Sunday

    Time Temperature Precipitation Wind Pressure Humidity
    00:00 +1°C° 0 mm 5 mps 742 mmHg 53%
    01:00 0°C° 0 mm 5 mps 742 mmHg 56%
    02:00 0°C° 0 mm 5 mps 741 mmHg 58%
    03:00 0°C° 0 mm 5 mps 741 mmHg 60%
    04:00 0°C° 0 mm 5 mps 741 mmHg 62%
    05:00 0°C° 0 mm 5 mps 741 mmHg 64%
    06:00 0°C° 0 mm 5 mps 740 mmHg 65%
    07:00 0°C° 0 mm 5 mps 740 mmHg 66%
    08:00 +1°C° 0 mm 5 mps 740 mmHg 62%
    09:00 +2°C° 0 mm 5 mps 740 mmHg 59%
    10:00 +3°C° 0 mm 5 mps 740 mmHg 55%
    11:00 +5°C° 0 mm 5 mps 740 mmHg 53%
    12:00 +6°C° 0 mm 5 mps 739 mmHg 50%
    13:00 +7°C° 0 mm 5 mps 739 mmHg 48%
    14:00 +6°C° 0 mm 4 mps 739 mmHg 51%
    15:00 +5°C° 0 mm 4 mps 738 mmHg 54%
    16:00 +5°C° 0 mm 3 mps 738 mmHg 57%
    17:00 +4°C° 0 mm 3 mps 738 mmHg 58%
    18:00 +3°C° 0 mm 4 mps 738 mmHg 60%
    19:00 +1°C° 0 mm 4 mps 738 mmHg 62%
    20:00 +1°C° 0 mm 3 mps 738 mmHg 62%
    21:00 +1°C° 0 mm 3 mps 738 mmHg 62%
    22:00 0°C° 0 mm 3 mps 738 mmHg 63%
    23:00 0°C° 0 mm 3 mps 737 mmHg 68%

    19 November, Monday

    Time Temperature Precipitation Wind Pressure Humidity
    00:00 0°C° 0 mm 3 mps 737 mmHg 74%
    01:00 -1°C° 0 mm 3 mps 736 mmHg 79%
    02:00 -1°C° 0 mm 3 mps 736 mmHg 83%
    03:00 -1°C° 0 mm 3 mps 736 mmHg 86%
    04:00 -1°C° 0 mm 3 mps 735 mmHg 89%
    05:00 0°C° 0 mm 3 mps 735 mmHg 87%
    06:00 0°C° 0 mm 3 mps 735 mmHg 84%
    07:00 0°C° 0 mm 3 mps 735 mmHg 81%
    08:00 0°C° 0.1 mm 4 mps 735 mmHg 77%
    09:00 +1°C° 0.1 mm 4 mps 735 mmHg 72%
    10:00 +1°C° 0.1 mm 4 mps 735 mmHg 68%
    11:00 +3°C° 0.1 mm 4 mps 734 mmHg 66%
    12:00 +3°C° 0.1 mm 4 mps 734 mmHg 64%
    13:00 +3°C° 0.1 mm 4 mps 733 mmHg 62%
    14:00 +3°C° 0 mm 4 mps 733 mmHg 63%
    15:00 +1°C° 0 mm 4 mps 733 mmHg 65%
    16:00 +1°C° 0 mm 4 mps 732 mmHg 66%
    17:00 +1°C° 0 mm 3 mps 732 mmHg 70%
    18:00 +1°C° 0 mm 3 mps 732 mmHg 75%
    19:00 0°C° 0 mm 3 mps 732 mmHg 79%
    20:00 0°C° 0 mm 3 mps 732 mmHg 83%
    21:00 -1°C° 0 mm 2 mps 731 mmHg 86%
    22:00 -1°C° 0 mm 2 mps 731 mmHg 90%
    23:00 -2°C° 0 mm 2 mps 731 mmHg 91%

    20 November, Tuesday

    Time Temperature Precipitation Wind Pressure Humidity
    00:00 -2°C° 0 mm 2 mps 730 mmHg 92%
    01:00 -2°C° 0 mm 2 mps 730 mmHg 94%
    02:00 -2°C° 0 mm 2 mps 729 mmHg 94%
    03:00 -2°C° 0 mm 2 mps 729 mmHg 93%
    04:00 -2°C° 0 mm 2 mps 729 mmHg 93%
    05:00 -2°C° 0 mm 2 mps 728 mmHg 93%
    06:00 -2°C° 0 mm 2 mps 728 mmHg 92%
    07:00 -2°C° 0 mm 2 mps 728 mmHg 92%
    08:00 -1°C° 0 mm 2 mps 728 mmHg 86%
    09:00 0°C° 0 mm 3 mps 728 mmHg 80%
    10:00 0°C° 0 mm 3 mps 727 mmHg 75%
    11:00 +1°C° 0.1 mm 3 mps 727 mmHg 72%
    12:00 +1°C° 0.1 mm 3 mps 727 mmHg 69%
    13:00 +2°C° 0.1 mm 3 mps 726 mmHg 67%
    14:00 +2°C° 0.1 mm 3 mps 726 mmHg 69%
    15:00 +1°C° 0.1 mm 3 mps 726 mmHg 72%
    16:00 +2°C° 0.1 mm 2 mps 725 mmHg 74%
    17:00 +1°C° 0.2 mm 3 mps 725 mmHg 77%
    18:00 0°C° 0.2 mm 3 mps 725 mmHg 81%
    19:00 0°C° 0.2 mm 3 mps 725 mmHg 84%
    20:00 0°C° 0.4 mm 3 mps 725 mmHg 86%
    21:00 0°C° 0.4 mm 3 mps 725 mmHg 87%
    22:00 0°C° 0.4 mm 3 mps 725 mmHg 89%
    23:00 -1°C° 0.5 mm 3 mps 725 mmHg 90%
    Show more